SL-8 R/B

Satellite information

Favourite Embed

Satellite Type and Status

ROCKET BODYIN ORBIT

Key statistics

Satellite SL-8 R/B at a glance.

Uptime

17831

Days in orbit

Revolutions

≈ 14.4

Per day

Orbit

LEO

Low Earth Orbit

Inclination

74.0

Latest

Satellite identification and parameters

Extended collection of information and parameters for SL-8 R/B.

Object identification

Identified? True

Debris? False

Object name: SL-8 R/B

International designator: 1976-069B

Object number (NORAD): 9023

Object ID (CCSDS): 9023

Country: COMMONWEALTH OF INDEPENDENT STATES (CIS)

Current information (Y/N): Y

RCS size: LARGE

Orbital parameters

Period: 99.933 minutes

Inclination: 74.0416 deg

SMA: 7133.457 km

Apoapsis: 767.855 km

Periapsis: 742.789 km

RAAN: 174.3476 deg

Eccentricy: 0.0017569

Argument of periapsis: 343.7343 deg

Mean anomaly: 16.3246 deg

Mean motion: 14.40962609 rev/day

Mean motion (dot): 0.00000336 rev/day2

B* drag term: 0.00011264 1/REarth

Two-line elements (TLE)

Creation date: May 9, 2025, 2:46 a.m.

Reference frame: TEME

Reference center: EARTH

Epoch: May 8, 2025, 2:23 p.m. UTC

TLE line 0: 0 SL-8 R/B

TLE line 1: 1 09023U 76069B 25128.59980721 .00000336 00000-0 11264-3 0 9990

TLE line 2: 2 09023 74.0416 174.3476 0017569 343.7343 16.3246 14.40962609559399

Live tracking on map

Real-time ground track for satellite SL-8 R/B.

In-orbit conjunctions

A list of the most updated potential collisions computed for object SL-8 R/B.

Target Orbit TCA Probability of collision Miss distance Type
CZ-4B DEB SSO 2024-12-07 17:40:54 0.0001096118 824.0 (m) DEBRIS
CZ-4B DEB SSO 2024-11-01 00:29:24 0.0001156085 455.0 (m) DEBRIS
CZ-6A DEB SSO 2024-10-27 02:14:58 0.0001289956 797.0 (m) DEBRIS
COSMOS 2251 DEB LEO 2024-08-21 20:29:15 0.0002007832 133.0 (m) DEBRIS

Associated space launch

Military communications satellite

SL-8 R/B was lifted into orbit during the mission ‘Kosmos-3M | Strela-2M 13’, on board a Kosmos-3M space rocket.

The launch took place on July 15, 1976, 1:11 p.m. from 132/1 (132L).

For more information about the launch, click the button.

Launch to space Kosmos-3M | Strela-2M 13
Kosmos-3M | Strela-2M 13

Agency: N/A

Status: Launch Successful

Launch date: July 15, 1976, 1:11 p.m. UTC

Rocket: Kosmos-3M

Launch pad: 132/1 (132L)

Location: Plesetsk Cosmodrome, Russian Federation

...

Latest news about this satellite

There are no fresh news available about this satellite. Check back as we update our databases every day.


Newsletter sign-up

Weekly statistics, charts and insights to help you stay on top of the space industry.